TimeCST,TemperatureF,Dew PointF,Humidity,Sea Level PressureIn,VisibilityMPH,Wind Direction,Wind SpeedMPH,Gust SpeedMPH,PrecipitationIn,Events,Conditions,WindDirDegrees,DateUTC
12:00 AM,77,74,90,30.06,12,Calm,Calm,,,,Scattered Clouds,,2012-12-13 06:00:00
3:00 AM,76,74,93,30.04,12,NNW,5.8,,,Rain,Light Rain Showers,340,2012-12-13 09:00:00
5:00 AM,71.6,71.6,100,30.04,0.5,Calm,Calm,-,N/A,Fog,Fog,0,2012-12-13 11:00:00
6:00 AM,73,73,100,30.06,0,North,6.9,,,Fog,Heavy Fog,350,2012-12-13 12:00:00
6:00 AM,73.4,73.4,100,30.04,0.3,North,6.9,-,N/A,Fog,Fog,350,2012-12-13 12:00:00
7:00 AM,73.4,73.4,100,30.06,0.3,NNW,9.2,-,N/A,Fog,Fog,340,2012-12-13 13:00:00
8:00 AM,73.4,73.4,100,30.06,0.4,North,9.2,-,N/A,Fog,Fog,360,2012-12-13 14:00:00
8:50 AM,73.4,73.4,100,30.10,0.6,NNW,4.6,-,N/A,Fog,Fog,340,2012-12-13 14:50:00
9:00 AM,75.2,73.4,94,30.10,1.2,NNW,5.8,-,N/A,,Mist,330,2012-12-13 15:00:00
9:30 AM,75.2,73.4,94,30.11,6.2,NNW,4.6,-,N/A,,Scattered Clouds,340,2012-12-13 15:30:00
10:00 AM,80.6,75.2,84,30.10,6.2,North,6.9,-,N/A,,Scattered Clouds,350,2012-12-13 16:00:00
12:00 PM,84,74,66,30.07,12,ENE,9.2,,,,,60,2012-12-13 18:00:00
12:00 PM,84.2,75.2,74,30.06,6.2,ENE,9.2,-,N/A,,Scattered Clouds,60,2012-12-13 18:00:00
1:00 PM,84.2,71.6,66,30.04,6.2,NE,10.4,-,N/A,,Scattered Clouds,50,2012-12-13 19:00:00
2:00 PM,86.0,71.6,62,30.02,6.2,NE,9.2,-,N/A,,Scattered Clouds,50,2012-12-13 20:00:00
3:00 PM,84,72,60,30.01,12,NE,8.1,,,,Partly Cloudy,50,2012-12-13 21:00:00
3:00 PM,84.2,71.6,66,30.00,6.2,NE,8.1,-,N/A,,Scattered Clouds,50,2012-12-13 21:00:00
4:00 PM,84.2,71.6,66,30.00,6.2,NE,9.2,-,N/A,,Partly Cloudy,50,2012-12-13 22:00:00
5:00 PM,82.4,73.4,74,30.01,6.2,NE,8.1,-,N/A,,Partly Cloudy,50,2012-12-13 23:00:00
6:00 PM,80.6,75.2,84,30.03,6.2,North,5.8,-,N/A,,Scattered Clouds,10,2012-12-14 00:00:00
7:00 PM,78.8,73.4,83,30.04,6.2,NNE,5.8,-,N/A,,Scattered Clouds,30,2012-12-14 01:00:00
8:00 PM,77.0,75.2,94,30.07,6.2,NNW,5.8,-,N/A,,Scattered Clouds,330,2012-12-14 02:00:00
9:00 PM,75,74,94,30.09,12,NNW,3.5,,,Rain,Light Rain Showers,340,2012-12-14 03:00:00
9:00 PM,75.2,73.4,94,30.08,6.2,NNW,3.5,-,N/A,,Scattered Clouds,340,2012-12-14 03:00:00
10:00 PM,75.2,73.4,94,30.06,6.2,NW,3.5,-,N/A,,Partly Cloudy,310,2012-12-14 04:00:00